CAL712 RPLL-RCKH

Flight info

Callsign CAL712
Flight time 1h 19m
Altitude 36000
Route CAB4V CAB B462 LAO/N0458F370 M646 POTIB POTIB2B
Aircraft B38M/M-SDE1FGHILORVWXY/HB1

Departure

Time 2026-04-21 13:44
Airport Ninoy Aquino International Airport (RPLL)

Arrival

Time 2026-04-21 15:04
Airport Kaohsiung International Airport (RCKH)
Time Latitude Longitude Altitude Speed Heading
2026-04-21 13:20 14.50506 121.00714 45 ft 0 kts 279°
2026-04-21 13:31 14.50505 121.00720 45 ft 4 kts 278°
2026-04-21 13:31 14.50503 121.00748 46 ft 4 kts 270°
2026-04-21 13:31 14.50505 121.00775 46 ft 4 kts 257°
2026-04-21 13:32 14.50513 121.00798 45 ft 1 kts 238°
2026-04-21 13:32 14.50513 121.00799 46 ft 1 kts 238°
2026-04-21 13:37 14.50509 121.00797 43 ft 1 kts 193°
2026-04-21 13:37 14.50478 121.00821 44 ft 12 kts 144°
2026-04-21 13:37 14.50434 121.00897 44 ft 13 kts 63°
2026-04-21 13:38 14.50489 121.01000 45 ft 21 kts 61°
2026-04-21 13:38 14.50578 121.01160 47 ft 26 kts 59°
2026-04-21 13:38 14.50670 121.01322 50 ft 25 kts 59°
2026-04-21 13:38 14.50759 121.01481 50 ft 26 kts 60°
2026-04-21 13:39 14.50850 121.01642 55 ft 25 kts 59°
2026-04-21 13:39 14.50917 121.01739 51 ft 9 kts 12°
2026-04-21 13:39 14.50963 121.01712 60 ft 11 kts 317°
2026-04-21 13:39 14.51053 121.01619 58 ft 25 kts 315°
2026-04-21 13:40 14.51177 121.01491 53 ft 25 kts 315°
2026-04-21 13:40 14.51298 121.01445 54 ft 20 kts 30°
2026-04-21 13:40 14.51392 121.01410 51 ft 15 kts 314°
2026-04-21 13:40 14.51481 121.01316 50 ft 21 kts 316°
2026-04-21 13:41 14.51595 121.01198 47 ft 24 kts 316°
2026-04-21 13:41 14.51719 121.01070 49 ft 27 kts 315°
2026-04-21 13:41 14.51845 121.00940 47 ft 24 kts 315°
2026-04-21 13:41 14.51958 121.00824 43 ft 22 kts 315°
2026-04-21 13:42 14.52073 121.00704 41 ft 25 kts 313°
2026-04-21 13:42 14.52205 121.00588 38 ft 23 kts 317°
2026-04-21 13:42 14.52229 121.00543 38 ft 1 kts 153°
2026-04-21 13:42 14.52225 121.00547 38 ft 0 kts 135°
2026-04-21 13:43 14.52224 121.00548 38 ft 0 kts 135°
2026-04-21 13:43 14.52224 121.00549 38 ft 0 kts 135°
2026-04-21 13:43 14.52221 121.00552 35 ft 2 kts 135°
2026-04-21 13:44 14.52135 121.00641 39 ft 53 kts 134°
2026-04-21 13:44 14.51661 121.01130 50 ft 137 kts 134°
2026-04-21 13:44 14.51129 121.01679 84 ft 182 kts 134°
2026-04-21 13:44 14.49774 121.03094 882 ft 233 kts 133°
2026-04-21 13:45 14.48609 121.04351 1980 ft 248 kts 134°
2026-04-21 13:45 14.47772 121.05221 2722 ft 255 kts 134°
2026-04-21 13:45 14.46502 121.06517 3938 ft 259 kts 131°
2026-04-21 13:45 14.45591 121.08110 5069 ft 262 kts 105°
2026-04-21 13:46 14.45505 121.09993 6146 ft 268 kts 78°
2026-04-21 13:46 14.46236 121.11746 7195 ft 275 kts 58°
2026-04-21 13:46 14.47309 121.13444 8204 ft 282 kts 56°
2026-04-21 13:46 14.48679 121.14869 9179 ft 288 kts 34°
2026-04-21 13:47 14.50532 121.15682 10134 ft 294 kts 11°
2026-04-21 13:47 14.52615 121.15639 10890 ft 309 kts 348°
2026-04-21 13:47 14.54776 121.15230 11571 ft 321 kts 355°
2026-04-21 13:47 14.57028 121.14963 12308 ft 331 kts 354°
2026-04-21 13:48 14.59344 121.14672 13084 ft 338 kts 354°
2026-04-21 13:48 14.61692 121.14365 13898 ft 343 kts 353°
2026-04-21 13:48 14.64074 121.14045 14665 ft 348 kts 353°
2026-04-21 13:48 14.66491 121.13716 15391 ft 352 kts 353°
2026-04-21 13:49 14.68937 121.13382 16118 ft 357 kts 352°
2026-04-21 13:49 14.71416 121.13042 16807 ft 361 kts 352°
2026-04-21 13:49 14.73917 121.12697 17471 ft 365 kts 352°
2026-04-21 13:49 14.76455 121.12348 18078 ft 370 kts 352°
2026-04-21 13:50 14.79028 121.11994 18670 ft 375 kts 352°
2026-04-21 13:50 14.81624 121.11636 19275 ft 378 kts 351°
2026-04-21 13:50 14.84245 121.11277 19854 ft 382 kts 351°
2026-04-21 13:50 14.86891 121.10912 20423 ft 385 kts 351°
2026-04-21 13:51 14.89556 121.10545 20953 ft 389 kts 351°
2026-04-21 13:51 14.92251 121.10174 21477 ft 392 kts 351°
2026-04-21 13:51 14.94969 121.09800 21996 ft 395 kts 351°
2026-04-21 13:51 14.97705 121.09422 22481 ft 399 kts 351°
2026-04-21 13:52 15.00469 121.09041 22960 ft 402 kts 351°
2026-04-21 13:52 15.03253 121.08656 23449 ft 405 kts 351°
2026-04-21 13:52 15.06055 121.08269 23893 ft 408 kts 351°
2026-04-21 13:52 15.08884 121.07879 24317 ft 411 kts 351°
2026-04-21 13:53 15.11730 121.07486 24785 ft 414 kts 351°
2026-04-21 13:53 15.14593 121.07090 25216 ft 417 kts 350°
2026-04-21 13:53 15.17479 121.06691 25628 ft 420 kts 350°
2026-04-21 13:53 15.20383 121.06290 26058 ft 422 kts 350°
2026-04-21 13:54 15.23301 121.05886 26480 ft 424 kts 350°
2026-04-21 13:54 15.26237 121.05480 26888 ft 427 kts 350°
2026-04-21 13:54 15.29191 121.05071 27284 ft 430 kts 350°
2026-04-21 13:54 15.32162 121.04658 27674 ft 432 kts 350°
2026-04-21 13:55 15.35156 121.04244 28055 ft 435 kts 350°
2026-04-21 13:55 15.38165 121.03827 28435 ft 437 kts 350°
2026-04-21 13:55 15.41191 121.03406 28798 ft 440 kts 350°
2026-04-21 13:55 15.44225 121.02986 29152 ft 442 kts 350°
2026-04-21 13:56 15.47282 121.02558 29501 ft 444 kts 349°
2026-04-21 13:56 15.50333 121.02001 29830 ft 446 kts 347°
2026-04-21 13:56 15.53397 121.01433 30168 ft 448 kts 347°
2026-04-21 13:56 15.56480 121.00873 30506 ft 450 kts 347°
2026-04-21 13:57 15.59577 121.00311 30818 ft 453 kts 347°
2026-04-21 13:57 15.62684 120.99748 31131 ft 455 kts 347°
2026-04-21 13:57 15.65805 120.99182 31442 ft 457 kts 347°
2026-04-21 13:57 15.68947 120.98611 31741 ft 459 kts 347°
2026-04-21 13:58 15.72063 120.98046 32036 ft 461 kts 347°
2026-04-21 13:58 15.75233 120.97471 32328 ft 463 kts 347°
2026-04-21 13:58 15.78413 120.96893 32614 ft 465 kts 347°
2026-04-21 13:58 15.81610 120.96313 32900 ft 468 kts 347°
2026-04-21 13:59 15.84823 120.95730 33196 ft 470 kts 347°
2026-04-21 13:59 15.88052 120.95143 33487 ft 471 kts 347°
2026-04-21 13:59 15.91286 120.94554 33827 ft 471 kts 347°
2026-04-21 13:59 15.94508 120.93968 34194 ft 470 kts 348°
2026-04-21 14:00 15.97732 120.93382 34528 ft 469 kts 347°
2026-04-21 14:00 16.00945 120.92797 34833 ft 469 kts 347°
2026-04-21 14:00 16.04155 120.92213 34973 ft 468 kts 347°
2026-04-21 14:00 16.07360 120.91629 34954 ft 466 kts 347°
2026-04-21 14:01 16.13721 120.90471 34932 ft 464 kts 347°
2026-04-21 14:01 16.20089 120.89310 34941 ft 465 kts 347°
2026-04-21 14:02 16.26466 120.88146 34930 ft 465 kts 347°
2026-04-21 14:03 16.36018 120.86403 34922 ft 464 kts 347°
2026-04-21 14:03 16.42382 120.85239 34935 ft 465 kts 347°
2026-04-21 14:04 16.48743 120.84076 34934 ft 464 kts 347°
2026-04-21 14:04 16.55105 120.82912 34939 ft 464 kts 347°
2026-04-21 14:05 16.61464 120.81748 34927 ft 464 kts 347°
2026-04-21 14:05 16.67820 120.80583 34942 ft 464 kts 347°
2026-04-21 14:06 16.74173 120.79418 34935 ft 463 kts 347°
2026-04-21 14:06 16.80522 120.78255 34933 ft 463 kts 347°
2026-04-21 14:07 16.86860 120.77090 34931 ft 462 kts 347°
2026-04-21 14:07 16.93192 120.75927 34932 ft 462 kts 347°
2026-04-21 14:08 16.99521 120.74764 34935 ft 462 kts 347°
2026-04-21 14:08 17.05846 120.73600 34940 ft 461 kts 347°
2026-04-21 14:09 17.12160 120.72438 34944 ft 461 kts 347°
2026-04-21 14:09 17.18470 120.71275 34947 ft 460 kts 347°
2026-04-21 14:10 17.24734 120.70121 34946 ft 460 kts 347°
2026-04-21 14:10 17.31071 120.68955 34937 ft 459 kts 347°
2026-04-21 14:11 17.37326 120.67803 34946 ft 459 kts 347°
2026-04-21 14:11 17.43486 120.66694 34938 ft 460 kts 351°
2026-04-21 14:12 17.49833 120.66736 34934 ft 463 kts 359°
2026-04-21 14:12 17.56264 120.66915 34948 ft 462 kts 358°
2026-04-21 14:13 17.62689 120.67079 34941 ft 461 kts 358°
2026-04-21 14:13 17.69066 120.67241 34948 ft 461 kts 358°
2026-04-21 14:14 17.75486 120.67405 34939 ft 461 kts 358°
2026-04-21 14:14 17.81907 120.67568 34944 ft 461 kts 358°
2026-04-21 14:15 17.88323 120.67732 34941 ft 461 kts 358°
2026-04-21 14:15 17.94737 120.67896 34942 ft 461 kts 358°
2026-04-21 14:16 18.01149 120.68059 34942 ft 461 kts 358°
2026-04-21 14:16 18.07542 120.68223 34941 ft 459 kts 358°
2026-04-21 14:17 18.13921 120.68386 34939 ft 459 kts 358°
2026-04-21 14:17 18.20310 120.68549 34926 ft 459 kts 358°
2026-04-21 14:18 18.26696 120.68713 34931 ft 459 kts 358°
2026-04-21 14:18 18.33079 120.68876 34948 ft 459 kts 358°
2026-04-21 14:19 18.39460 120.69040 34940 ft 458 kts 358°
2026-04-21 14:19 18.45838 120.69203 34944 ft 459 kts 358°
2026-04-21 14:20 18.52181 120.69367 34940 ft 458 kts 358°
2026-04-21 14:20 18.58556 120.69530 34940 ft 459 kts 358°
2026-04-21 14:21 18.64940 120.69695 34943 ft 458 kts 358°
2026-04-21 14:21 18.71320 120.69859 34949 ft 459 kts 358°
2026-04-21 14:22 18.77700 120.70023 34946 ft 459 kts 358°
2026-04-21 14:22 18.84080 120.70188 34942 ft 458 kts 358°
2026-04-21 14:23 18.90455 120.70352 34947 ft 458 kts 358°
2026-04-21 14:23 18.96831 120.70517 34943 ft 458 kts 358°
2026-04-21 14:24 19.03209 120.70682 34941 ft 458 kts 358°
2026-04-21 14:24 19.09582 120.70846 34940 ft 458 kts 358°
2026-04-21 14:25 19.15957 120.71012 34943 ft 458 kts 358°
2026-04-21 14:25 19.22329 120.71177 34944 ft 458 kts 358°
2026-04-21 14:26 19.28702 120.71342 34942 ft 458 kts 358°
2026-04-21 14:26 19.35076 120.71507 34947 ft 458 kts 358°
2026-04-21 14:27 19.41451 120.71673 34950 ft 458 kts 358°
2026-04-21 14:27 19.47823 120.71838 34951 ft 458 kts 358°
2026-04-21 14:28 19.54200 120.72004 34950 ft 458 kts 358°
2026-04-21 14:28 19.60531 120.72168 34951 ft 458 kts 358°
2026-04-21 14:29 19.66895 120.72335 34955 ft 458 kts 358°
2026-04-21 14:29 19.73269 120.72501 34952 ft 458 kts 358°
2026-04-21 14:30 19.79637 120.72667 34957 ft 458 kts 358°
2026-04-21 14:30 19.86003 120.72833 34962 ft 458 kts 358°
2026-04-21 14:31 19.92378 120.73000 34962 ft 458 kts 358°
2026-04-21 14:31 19.97675 120.73138 34961 ft 458 kts 358°
2026-04-21 14:32 20.04046 120.73304 34962 ft 458 kts 358°
2026-04-21 14:32 20.10414 120.73471 34961 ft 458 kts 358°
2026-04-21 14:33 20.16781 120.73638 34964 ft 458 kts 358°
2026-04-21 14:33 20.23148 120.73805 34970 ft 458 kts 358°
2026-04-21 14:34 20.29520 120.73973 34970 ft 458 kts 358°
2026-04-21 14:34 20.35894 120.74140 34971 ft 458 kts 358°
2026-04-21 14:35 20.42268 120.74308 34971 ft 458 kts 358°
2026-04-21 14:35 20.48646 120.74476 34971 ft 458 kts 358°
2026-04-21 14:36 20.54685 120.74633 34970 ft 458 kts 358°
2026-04-21 14:36 20.61057 120.74802 34971 ft 458 kts 358°
2026-04-21 14:37 20.66987 120.74959 34976 ft 458 kts 358°
2026-04-21 14:37 20.73361 120.75127 34980 ft 458 kts 358°
2026-04-21 14:38 20.79737 120.75295 34982 ft 459 kts 358°
2026-04-21 14:38 20.86064 120.75464 34916 ft 444 kts 358°
2026-04-21 14:38 20.89122 120.75544 34564 ft 437 kts 357°
2026-04-21 14:39 20.92148 120.75624 33996 ft 435 kts 357°
2026-04-21 14:39 20.95174 120.75704 33409 ft 434 kts 357°
2026-04-21 14:39 20.98186 120.75784 32870 ft 432 kts 358°
2026-04-21 14:39 21.01184 120.75981 32311 ft 432 kts
2026-04-21 14:40 21.04174 120.76275 31734 ft 430 kts
2026-04-21 14:40 21.07148 120.76551 31232 ft 428 kts
2026-04-21 14:40 21.10099 120.76817 30740 ft 424 kts
2026-04-21 14:40 21.13037 120.77079 30230 ft 422 kts
2026-04-21 14:41 21.15952 120.77338 29718 ft 419 kts
2026-04-21 14:41 21.18851 120.77596 29216 ft 417 kts
2026-04-21 14:41 21.21733 120.77851 28724 ft 414 kts
2026-04-21 14:41 21.24593 120.78106 28234 ft 411 kts
2026-04-21 14:42 21.27444 120.78359 27752 ft 409 kts
2026-04-21 14:42 21.30272 120.78611 27278 ft 407 kts
2026-04-21 14:42 21.33083 120.78861 26813 ft 404 kts
2026-04-21 14:42 21.35870 120.78883 26285 ft 398 kts 347°
2026-04-21 14:43 21.38520 120.78131 25809 ft 392 kts 340°
2026-04-21 14:43 21.41130 120.77323 25440 ft 388 kts 340°
2026-04-21 14:43 21.43713 120.76515 25022 ft 385 kts 340°
2026-04-21 14:43 21.46275 120.75699 24600 ft 383 kts 340°
2026-04-21 14:44 21.48816 120.74881 24182 ft 381 kts 340°
2026-04-21 14:44 21.51349 120.74062 23769 ft 378 kts 340°
2026-04-21 14:44 21.53859 120.73248 23363 ft 376 kts 340°
2026-04-21 14:44 21.56360 120.72437 22961 ft 374 kts 340°
2026-04-21 14:45 21.58836 120.71633 22565 ft 371 kts 340°
2026-04-21 14:45 21.61303 120.70832 22171 ft 369 kts 340°
2026-04-21 14:45 21.63750 120.70037 21781 ft 366 kts 340°
2026-04-21 14:45 21.66152 120.69257 21398 ft 364 kts 340°
2026-04-21 14:46 21.68566 120.68472 21016 ft 361 kts 340°
2026-04-21 14:46 21.70962 120.67693 20634 ft 359 kts 340°
2026-04-21 14:46 21.73341 120.66919 20260 ft 356 kts 340°
2026-04-21 14:46 21.75705 120.66149 19888 ft 354 kts 340°
2026-04-21 14:47 21.78053 120.65385 19518 ft 351 kts 340°
2026-04-21 14:47 21.80383 120.64626 19145 ft 349 kts 340°
2026-04-21 14:47 21.82696 120.63873 18778 ft 346 kts 340°
2026-04-21 14:47 21.84990 120.63126 18411 ft 344 kts 340°
2026-04-21 14:48 21.87270 120.62383 18047 ft 341 kts 340°
2026-04-21 14:48 21.89503 120.61567 17635 ft 337 kts 330°
2026-04-21 14:48 21.91392 120.60126 17273 ft 330 kts 317°
2026-04-21 14:48 21.93161 120.58563 16937 ft 327 kts 318°
2026-04-21 14:49 21.94908 120.57008 16590 ft 324 kts 318°
2026-04-21 14:49 21.96636 120.55455 16252 ft 322 kts 318°
2026-04-21 14:49 21.98344 120.53908 15909 ft 319 kts 318°
2026-04-21 14:49 22.00030 120.52374 15575 ft 316 kts 317°
2026-04-21 14:50 22.01141 120.51363 15354 ft 315 kts 318°
2026-04-21 14:50 22.03363 120.49336 14908 ft 311 kts 317°
2026-04-21 14:50 22.05008 120.47835 14578 ft 309 kts 317°
2026-04-21 14:50 22.06637 120.46337 14217 ft 307 kts 317°
2026-04-21 14:51 22.08259 120.44845 13885 ft 305 kts 318°
2026-04-21 14:51 22.09863 120.43367 13573 ft 302 kts 318°
2026-04-21 14:51 22.11458 120.41899 13255 ft 301 kts 318°
2026-04-21 14:51 22.13062 120.40422 12935 ft 306 kts 318°
2026-04-21 14:52 22.14690 120.38920 12603 ft 310 kts 318°
2026-04-21 14:52 22.16331 120.37408 12270 ft 310 kts 318°
2026-04-21 14:52 22.17963 120.35904 11948 ft 307 kts 318°
2026-04-21 14:52 22.19552 120.34438 11675 ft 302 kts 318°
2026-04-21 14:53 22.21164 120.32951 11376 ft 299 kts 318°
2026-04-21 14:53 22.22711 120.31509 11056 ft 297 kts 317°
2026-04-21 14:53 22.24259 120.30038 10692 ft 296 kts 318°
2026-04-21 14:53 22.25821 120.28558 10432 ft 293 kts 318°
2026-04-21 14:54 22.27331 120.27128 10289 ft 284 kts 318°
2026-04-21 14:54 22.28793 120.25742 10165 ft 275 kts 318°
2026-04-21 14:54 22.30202 120.24406 9964 ft 274 kts 318°
2026-04-21 14:54 22.31674 120.23010 9657 ft 281 kts 318°
2026-04-21 14:55 22.33140 120.21620 9341 ft 286 kts 318°
2026-04-21 14:55 22.34641 120.20196 9024 ft 287 kts 318°
2026-04-21 14:55 22.36151 120.18763 8707 ft 289 kts 318°
2026-04-21 14:55 22.37664 120.17325 8363 ft 290 kts 319°
2026-04-21 14:56 22.39177 120.15887 8044 ft 289 kts 319°
2026-04-21 14:56 22.40680 120.14457 7734 ft 287 kts 319°
2026-04-21 14:56 22.42175 120.13035 7434 ft 285 kts 319°
2026-04-21 14:56 22.43646 120.11637 7256 ft 278 kts 319°
2026-04-21 14:57 22.45073 120.10278 7139 ft 269 kts 319°
2026-04-21 14:57 22.46570 120.09116 6852 ft 265 kts 339°
2026-04-21 14:57 22.48367 120.08770 6424 ft 265 kts
2026-04-21 14:57 22.50218 120.08847 5994 ft 268 kts
2026-04-21 14:58 22.52085 120.08930 5520 ft 267 kts
2026-04-21 14:58 22.53926 120.09019 5080 ft 263 kts
2026-04-21 14:58 22.55747 120.09130 4657 ft 260 kts 10°
2026-04-21 14:58 22.57346 120.09865 4210 ft 248 kts 45°
2026-04-21 14:59 22.58221 120.11387 3872 ft 235 kts 75°
2026-04-21 14:59 22.58388 120.13099 3617 ft 224 kts 91°
2026-04-21 14:59 22.58332 120.14748 3376 ft 214 kts 91°
2026-04-21 14:59 22.58279 120.16320 3121 ft 206 kts 91°
2026-04-21 15:00 22.58232 120.17834 2873 ft 197 kts 90°
2026-04-21 15:00 22.58187 120.19292 2607 ft 190 kts 90°
2026-04-21 15:00 22.58145 120.20696 2356 ft 183 kts 90°
2026-04-21 15:00 22.58103 120.22033 2116 ft 177 kts 90°
2026-04-21 15:01 22.58064 120.23324 1884 ft 168 kts 90°
2026-04-21 15:01 22.58026 120.24565 1689 ft 161 kts 90°
2026-04-21 15:01 22.57990 120.25721 1513 ft 149 kts 90°
2026-04-21 15:01 22.57957 120.26817 1301 ft 144 kts 91°
2026-04-21 15:02 22.57923 120.27906 1133 ft 144 kts 91°
2026-04-21 15:02 22.57891 120.28966 913 ft 139 kts 91°
2026-04-21 15:02 22.57860 120.30011 726 ft 139 kts 91°
2026-04-21 15:02 22.57828 120.31050 538 ft 138 kts 91°
2026-04-21 15:03 22.57805 120.32088 336 ft 138 kts 90°
2026-04-21 15:03 22.57771 120.33122 159 ft 137 kts 94°
2026-04-21 15:03 22.57730 120.34139 42 ft 128 kts 90°
2026-04-21 15:03 22.57710 120.34963 34 ft 80 kts 92°
2026-04-21 15:04 22.57692 120.35509 35 ft 66 kts 92°
2026-04-21 15:04 22.57679 120.35862 39 ft 26 kts 96°
2026-04-21 15:04 22.57578 120.35919 37 ft 13 kts 180°
2026-04-21 15:04 22.57519 120.35889 38 ft 7 kts 257°
2026-04-21 15:05 22.57516 120.35789 38 ft 20 kts 271°
2026-04-21 15:05 22.57529 120.35433 36 ft 23 kts 272°
2026-04-21 15:05 22.57535 120.35266 35 ft 23 kts 272°
2026-04-21 15:06 22.57540 120.35084 35 ft 25 kts 271°
2026-04-21 15:06 22.57545 120.34884 34 ft 26 kts 271°
2026-04-21 15:06 22.57550 120.34708 34 ft 21 kts 271°
2026-04-21 15:06 22.57477 120.34618 34 ft 18 kts 182°
2026-04-21 15:07 22.57391 120.34601 33 ft 6 kts 233°
2026-04-21 15:07 22.57393 120.34542 33 ft 15 kts 278°
2026-04-21 15:07 22.57402 120.34386 33 ft 24 kts 275°
2026-04-21 15:07 22.57409 120.34195 32 ft 27 kts 270°
2026-04-21 15:08 22.57370 120.34059 31 ft 15 kts 188°
2026-04-21 15:08 22.57270 120.34053 31 ft 8 kts 196°
2026-04-21 15:08 22.57268 120.34039 31 ft 7 kts 276°
2026-04-21 15:08 22.57273 120.33969 31 ft 5 kts 271°
2026-04-21 15:09 22.57273 120.33968 31 ft 0 kts 272°